GW4285 Weather Reports


Display with metric or nautical units.
time (UTC)temp
F
wind
direction
speed
MPH
gust
MPH
rain 1hr
in
rain 24hr
in
rain mn
in
humidity
%
barometer
mb
20260902062836 57 300 0.0 0.0 0.00 0.00 0.00 96 1016.7
20260902062331 57 300 0.0 0.0 0.00 0.00 0.00 96 1016.5
20260902061830 57 300 0.0 0.0 0.00 0.00 0.00 95 1016.6
20260902061326 57 300 0.0 0.0 0.00 0.00 0.00 95 1016.6
20260902060822 57 300 0.0 0.0 0.00 0.00 0.00 95 1016.6
20260902060318 58 300 0.0 0.0 0.00 0.00 0.00 95 1016.6
20260902055813 58 208 0.0 0.0 0.00 0.00 0.00 95 1016.7
20260902055309 58 208 0.0 0.0 0.00 0.00 0.00 95 1016.7
20260902054804 58 208 0.0 0.0 0.00 0.00 0.00 95 1016.7
20260902054300 58 208 0.0 0.0 0.00 0.00 0.00 95 1016.8
20260902053755 58 208 0.0 0.0 0.00 0.00 0.00 95 1016.7
20260902053254 58 208 0.0 0.0 0.00 0.00 0.00 95 1016.8
20260902052754 59 207 0.0 0.0 0.00 0.00 0.00 95 1016.6
20260902052249 59 207 0.0 0.0 0.00 0.00 0.00 95 1016.8
20260902051743 59 207 0.0 0.0 0.00 0.00 0.00 95 1016.7
20260902051237 59 265 0.0 0.0 0.00 0.00 0.00 95 1016.8
20260902050733 59 244 0.0 0.0 0.00 0.00 0.00 95 1016.8
20260902050228 59 247 0.0 0.0 0.00 0.00 0.00 94 1016.8
20260902045728 59 263 0.0 0.0 0.00 0.00 0.00 94 1016.8
20260902045224 59 263 0.0 0.0 0.00 0.00 0.00 94 1016.9
20260902044720 60 263 0.0 0.0 0.00 0.00 0.00 94 1016.8
20260902044215 60 263 0.0 0.0 0.00 0.00 0.00 94 1017.0
20260902043715 60 254 0.0 0.0 0.00 0.00 0.00 93 1016.9
20260902043211 60 259 0.0 0.0 0.00 0.00 0.00 93 1017.0
20260902042710 60 269 0.0 1.0 0.00 0.00 0.00 93 1016.9
20260902042205 60 255 0.0 1.0 0.00 0.00 0.00 93 1016.8
20260902041700 60 256 0.0 0.0 0.00 0.00 0.00 93 1016.7
20260902041155 60 266 0.0 3.0 0.00 0.00 0.00 93 1016.6
20260902040654 60 253 0.0 1.0 0.00 0.00 0.00 92 1016.6
20260902040149 60 254 0.0 0.0 0.00 0.00 0.00 92 1016.4
20260902035648 60 269 0.0 0.0 0.00 0.00 0.00 92 1016.2
20260902035144 60 262 0.0 0.0 0.00 0.00 0.00 92 1016.4
20260902034643 60 262 0.0 1.0 0.00 0.00 0.00 92 1016.5
20260902034143 60 254 1.0 4.0 0.00 0.00 0.00 91 1016.5
20260902033642 60 260 0.0 0.0 0.00 0.00 0.00 91 1016.4
20260902033137 60 257 0.0 0.0 0.00 0.00 0.00 91 1016.4
20260902032635 60 244 3.0 3.0 0.00 0.00 0.00 91 1016.3
20260902032135 60 260 0.0 0.0 0.00 0.00 0.00 91 1016.3
20260902031630 60 259 0.0 0.0 0.00 0.00 0.00 91 1016.2
20260902031127 60 262 0.0 1.0 0.00 0.00 0.00 91 1016.1
20260902030622 60 252 0.0 0.0 0.00 0.00 0.00 91 1016.1
20260902030121 61 250 2.0 4.0 0.00 0.00 0.00 90 1016.2
20260902025620 61 251 0.0 5.0 0.00 0.00 0.00 90 1016.2
20260902025116 61 251 2.0 5.0 0.00 0.00 0.00 89 1016.1
20260902024611 61 245 1.0 4.0 0.00 0.00 0.00 89 1016.1
20260902024106 61 255 4.0 7.0 0.00 0.00 0.00 88 1016.2
20260902023602 61 262 4.0 12.0 0.00 0.00 0.00 88 1016.2
20260902023057 62 254 2.0 8.0 0.00 0.00 0.00 87 1016.3
20260902022556 62 249 4.0 8.0 0.00 0.00 0.00 86 1016.1
20260902022053 62 247 1.0 12.0 0.00 0.00 0.00 85 1016.0
20260902021547 62 251 4.0 10.0 0.00 0.00 0.00 84 1016.1
20260902021043 62 248 6.0 10.0 0.00 0.00 0.00 84 1016.1
20260902020538 62 270 3.0 11.0 0.00 0.00 0.00 83 1016.1
20260902020034 62 250 2.0 8.0 0.00 0.00 0.00 84 1016.1
20260902015530 62 244 5.0 10.0 0.00 0.00 0.00 83 1016.1
20260902015025 63 247 5.0 11.0 0.00 0.00 0.00 82 1016.0
20260902014521 63 274 7.0 10.0 0.00 0.00 0.00 81 1016.0
20260902014016 63 262 6.0 7.0 0.00 0.00 0.00 81 1016.1
20260902013511 63 283 3.0 10.0 0.00 0.00 0.00 80 1015.9
20260902013007 64 250 4.0 16.0 0.00 0.00 0.00 79 1016.0
20260902012501 64 242 9.0 12.0 0.00 0.00 0.00 78 1016.2
20260902011957 64 253 7.0 12.0 0.00 0.00 0.00 77 1016.1
20260902011453 64 247 9.0 18.0 0.00 0.00 0.00 76 1016.1
20260902010952 65 236 7.0 15.0 0.00 0.00 0.00 74 1016.0
20260902010446 65 255 5.0 12.0 0.00 0.00 0.00 73 1015.9
20260902005945 66 265 10.0 15.0 0.00 0.00 0.00 71 1015.9
20260902005444 65 261 5.0 11.0 0.00 0.00 0.00 68 1015.8
20260902004941 65 253 4.0 10.0 0.00 0.00 0.00 69 1015.8
20260902004440 66 261 12.0 15.0 0.00 0.00 0.00 67 1015.8
20260902003936 65 244 6.0 15.0 0.00 0.00 0.00 70 1016.0
20260902003436 65 267 4.0 12.0 0.00 0.00 0.00 71 1015.7
20260902002931 66 264 6.0 14.0 0.00 0.00 0.00 68 1015.8
20260902002426 66 246 10.0 16.0 0.00 0.00 0.00 68 1015.7
20260902001926 66 236 3.0 7.0 0.00 0.00 0.00 69 1015.8
20260902001421 65 239 7.0 14.0 0.00 0.00 0.00 68 1015.7
20260902000916 66 269 5.0 14.0 0.00 0.00 0.00 66 1015.7
20260902000414 66 265 5.0 12.0 0.00 0.00 0.00 67 1015.8
20260901235907 66 284 10.0 16.0 0.00 0.00 0.00 65 1015.6
20260901235407 67 238 7.0 16.0 0.00 0.00 0.00 64 1015.7
20260901234902 68 291 7.0 10.0 0.00 0.00 0.00 61 1015.6
20260901234355 68 237 5.0 8.0 0.00 0.00 0.00 61 1015.7
20260901233850 68 228 10.0 14.0 0.00 0.00 0.00 63 1015.7
20260901233346 69 244 5.0 12.0 0.00 0.00 0.00 61 1015.8
20260901232842 69 259 11.0 14.0 0.00 0.00 0.00 60 1015.8
20260901232337 70 259 5.0 18.0 0.00 0.00 0.00 60 1015.8
20260901231833 69 236 12.0 15.0 0.00 0.00 0.00 61 1015.8
20260901231329 67 253 7.0 16.0 0.00 0.00 0.00 65 1015.8
20260901230825 67 240 9.0 14.0 0.00 0.00 0.00 64 1015.8
20260901230324 66 241 3.0 14.0 0.00 0.00 0.00 65 1015.8
20260901225820 67 262 9.0 12.0 0.00 0.00 0.00 63 1015.8
20260901225319 67 231 6.0 14.0 0.00 0.00 0.00 63 1015.8
20260901224815 69 259 7.0 15.0 0.00 0.00 0.00 62 1015.8
20260901224311 68 290 3.0 12.0 0.00 0.00 0.00 61 1015.9
20260901223807 67 273 5.0 14.0 0.00 0.00 0.00 61 1015.9
20260901223302 67 290 8.0 12.0 0.00 0.00 0.00 60 1015.8
20260901222758 68 245 5.0 19.0 0.00 0.00 0.00 60 1016.0
20260901222254 68 251 11.0 19.0 0.00 0.00 0.00 59 1015.9
20260901221749 68 245 7.0 18.0 0.00 0.00 0.00 61 1016.2
20260901221244 68 263 3.0 7.0 0.00 0.00 0.00 59 1016.1
20260901220739 68 245 3.0 12.0 0.00 0.00 0.00 59 1016.1
20260901220238 68 230 5.0 10.0 0.00 0.00 0.00 59 1016.0
20260901215737 69 258 6.0 10.0 0.00 0.00 0.00 58 1016.0
20260901215231 69 231 5.0 14.0 0.00 0.00 0.00 60 1016.0
20260901214730 69 236 12.0 16.0 0.00 0.00 0.00 60 1015.9
20260901214223 69 278 4.0 15.0 0.00 0.00 0.00 58 1015.9
20260901213718 68 233 8.0 11.0 0.00 0.00 0.00 60 1015.9
20260901213213 69 226 5.0 10.0 0.00 0.00 0.00 59 1015.8
20260901212712 68 252 2.0 12.0 0.00 0.00 0.00 60 1015.8
20260901212209 69 246 5.0 11.0 0.00 0.00 0.00 58 1016.0
20260901211708 69 253 5.0 8.0 0.00 0.00 0.00 58 1015.8
20260901211205 70 270 7.0 14.0 0.00 0.00 0.00 57 1015.9
20260901210701 70 215 6.0 14.0 0.00 0.00 0.00 57 1015.8
20260901210156 69 245 7.0 15.0 0.00 0.00 0.00 59 1015.9
20260901205651 71 256 1.0 3.0 0.00 0.00 0.00 54 1015.8
20260901205146 69 244 4.0 11.0 0.00 0.00 0.00 56 1015.8
20260901204642 69 256 2.0 10.0 0.00 0.00 0.00 56 1015.9
20260901204137 69 287 4.0 8.0 0.00 0.00 0.00 56 1015.9
20260901203636 73 220 4.0 8.0 0.00 0.00 0.00 52 1015.9
20260901203131 69 245 7.0 12.0 0.00 0.00 0.00 54 1015.9
20260901202631 71 249 5.0 11.0 0.00 0.00 0.00 52 1016.0
20260901202127 72 273 10.0 14.0 0.00 0.00 0.00 51 1016.2
20260901201623 72 259 3.0 7.0 0.00 0.00 0.00 51 1016.1
20260901201122 70 255 7.0 15.0 0.00 0.00 0.00 54 1016.2
20260901200616 70 211 3.0 5.0 0.00 0.00 0.00 52 1016.0
20260901200111 69 245 0.0 10.0 0.00 0.00 0.00 54 1016.2
20260901195609 69 238 4.0 7.0 0.00 0.00 0.00 56 1016.2
20260901195108 70 264 5.0 11.0 0.00 0.00 0.00 56 1016.3
20260901194604 69 273 6.0 8.0 0.00 0.00 0.00 56 1016.1
20260901194059 70 236 6.0 11.0 0.00 0.00 0.00 57 1016.2
20260901193555 67 250 3.0 8.0 0.00 0.00 0.00 62 1016.2
20260901193049 68 255 5.0 11.0 0.00 0.00 0.00 62 1016.3
20260901192544 69 269 11.0 15.0 0.00 0.00 0.00 61 1016.3
20260901192040 69 239 5.0 10.0 0.00 0.00 0.00 61 1016.2
20260901191536 70 89 0.0 3.0 0.00 0.00 0.00 60 1016.3
20260901191032 69 251 5.0 11.0 0.00 0.00 0.00 62 1016.4
20260901190527 67 244 5.0 8.0 0.00 0.00 0.00 66 1016.4
20260901190027 65 246 1.0 8.0 0.00 0.00 0.00 70 1016.4
20260901185524 66 255 5.0 10.0 0.00 0.00 0.00 71 1016.5
20260901185024 65 252 4.0 5.0 0.00 0.00 0.00 68 1016.3
20260901184520 65 266 4.0 10.0 0.00 0.00 0.00 68 1016.4
20260901184015 67 257 9.0 14.0 0.00 0.00 0.00 68 1016.3
20260901183515 68 261 4.0 4.0 0.00 0.00 0.00 65 1016.4
20260901183010 67 248 3.0 8.0 0.00 0.00 0.00 67 1016.3
20260901182506 66 270 2.0 8.0 0.00 0.00 0.00 71 1016.4
20260901182001 65 252 0.0 5.0 0.00 0.00 0.00 74 1016.4
20260901181501 64 252 0.0 4.0 0.00 0.00 0.00 75 1016.4
20260901180959 63 260 5.0 7.0 0.00 0.00 0.00 75 1016.6
20260901180459 64 265 3.0 7.0 0.00 0.00 0.00 74 1016.5
20260901175957 64 254 4.0 8.0 0.00 0.00 0.00 78 1016.3
20260901175452 66 239 2.0 4.0 0.00 0.00 0.00 74 1016.4
20260901174947 65 237 3.0 5.0 0.00 0.00 0.00 78 1016.3
20260901174443 64 250 3.0 10.0 0.00 0.00 0.00 79 1016.2
20260901173939 64 257 3.0 7.0 0.00 0.00 0.00 78 1016.0
20260901173433 64 243 0.0 1.0 0.00 0.00 0.00 77 1016.1
20260901172930 65 254 5.0 7.0 0.00 0.00 0.00 77 1016.0
20260901172425 64 250 0.0 1.0 0.00 0.00 0.00 79 1016.1
20260901171922 64 242 3.0 4.0 0.00 0.00 0.00 79 1015.9
20260901171421 64 75 0.0 3.0 0.00 0.00 0.00 80 1016.0
20260901170920 63 262 0.0 0.0 0.00 0.00 0.00 81 1015.8
20260901170415 62 225 0.0 1.0 0.00 0.00 0.00 82 1015.9
20260901165909 62 289 2.0 3.0 0.00 0.00 0.00 83 1015.9
20260901165403 62 261 3.0 5.0 0.00 0.00 0.00 84 1015.8
20260901164900 62 242 6.0 8.0 0.00 0.00 0.00 84 1015.8
20260901164355 62 246 3.0 3.0 0.00 0.00 0.00 86 1015.9
20260901163849 61 253 0.0 4.0 0.00 0.00 0.00 87 1015.7
20260901163344 60 245 3.0 3.0 0.00 0.00 0.00 90 1015.9
20260901162839 59 262 2.0 4.0 0.00 0.00 0.00 92 1015.9
20260901162338 59 246 2.0 4.0 0.00 0.00 0.00 95 1015.9
20260901161837 59 254 3.0 5.0 0.00 0.00 0.00 95 1016.0
20260901161332 59 275 3.0 8.0 0.00 0.00 0.00 93 1015.9
20260901160827 60 256 9.0 12.0 0.00 0.00 0.00 92 1015.7
20260901160324 60 228 5.0 8.0 0.00 0.00 0.00 91 1015.7
20260901155822 60 240 2.0 5.0 0.00 0.00 0.00 91 1015.8
20260901155317 60 250 1.0 5.0 0.00 0.00 0.00 91 1015.7
20260901154814 60 254 1.0 3.0 0.00 0.00 0.00 92 1015.5
20260901154313 60 251 2.0 3.0 0.00 0.00 0.00 92 1015.6
20260901153808 59 223 1.0 1.0 0.00 0.00 0.00 95 1015.4
20260901153308 59 255 0.0 0.0 0.00 0.00 0.00 97 1015.4
20260901152807 59 245 0.0 0.0 0.00 0.00 0.00 98 1015.4
20260901152301 58 262 0.0 0.0 0.00 0.00 0.00 99 1015.3
20260901151756 58 283 0.0 0.0 0.00 0.00 0.00 99 1015.3
20260901151256 58 239 0.0 0.0 0.00 0.00 0.00 99 1015.3
20260901150755 58 286 1.0 3.0 0.00 0.00 0.00 99 1015.3
20260901150253 58 259 0.0 0.0 0.00 0.00 0.00 99 1015.2
20260901145752 58 259 0.0 3.0 0.00 0.00 0.00 99 1015.2
20260901145251 58 246 3.0 4.0 0.00 0.00 0.00 99 1015.1
20260901144747 57 244 2.0 4.0 0.00 0.00 0.00 99 1015.0
20260901144242 58 253 2.0 4.0 0.00 0.00 0.00 98 1014.9
20260901143738 58 262 4.0 10.0 0.00 0.00 0.00 98 1015.0
20260901143234 58 278 0.0 1.0 0.00 0.00 0.00 98 1014.7
20260901142730 58 260 0.0 1.0 0.00 0.00 0.00 98 1014.7
20260901142229 58 252 0.0 0.0 0.00 0.00 0.00 98 1014.6
20260901141724 58 253 0.0 0.0 0.00 0.00 0.00 98 1014.5
20260901141218 58 253 0.0 0.0 0.00 0.00 0.00 98 1014.5
20260901140717 58 252 0.0 0.0 0.00 0.00 0.00 98 1014.4
20260901140216 58 242 0.0 0.0 0.00 0.00 0.00 98 1014.4
20260901135712 57 257 0.0 0.0 0.00 0.00 0.00 98 1014.2
20260901135212 57 257 0.0 0.0 0.00 0.00 0.00 98 1014.2
20260901134708 57 260 0.0 0.0 0.00 0.00 0.00 98 1014.1
20260901134203 57 261 0.0 3.0 0.00 0.00 0.00 98 1014.1
20260901133702 57 249 0.0 0.0 0.00 0.00 0.00 98 1014.1
20260901133200 57 254 0.0 0.0 0.00 0.00 0.00 98 1013.9
20260901132655 57 263 0.0 0.0 0.00 0.00 0.00 98 1013.9
20260901132149 57 263 0.0 1.0 0.00 0.00 0.00 98 1013.8
20260901131649 57 232 0.0 0.0 0.00 0.00 0.00 98 1013.8
20260901131143 57 232 0.0 0.0 0.00 0.00 0.00 98 1013.7
20260901130639 57 232 0.0 0.0 0.00 0.00 0.00 98 1013.7
20260901130137 57 232 0.0 0.0 0.00 0.00 0.00 98 1013.7
20260901125636 57 231 0.0 0.0 0.00 0.00 0.00 98 1013.8
20260901125131 57 231 0.0 0.0 0.00 0.00 0.00 98 1013.7
20260901124625 57 243 0.0 0.0 0.00 0.00 0.00 98 1013.8
20260901124114 57 12 0.0 0.0 0.00 0.00 0.00 98 1013.5
20260901123614 57 300 0.0 0.0 0.00 0.00 0.00 98 1013.6
20260901123114 57 301 0.0 0.0 0.00 0.00 0.00 98 1013.7
20260901122613 57 302 0.0 0.0 0.00 0.00 0.00 98 1013.5
20260901122107 57 254 0.0 0.0 0.00 0.00 0.00 98 1013.6
20260901121601 57 254 0.0 0.0 0.00 0.00 0.00 98 1013.5
20260901121057 57 305 0.0 0.0 0.00 0.00 0.00 98 1013.6
20260901120551 57 305 0.0 0.0 0.00 0.00 0.00 98 1013.4
20260901120047 57 305 0.0 0.0 0.00 0.00 0.00 98 1013.5
20260901115542 57 307 0.0 0.0 0.00 0.00 0.00 98 1013.4
20260901115039 57 300 0.0 0.0 0.00 0.00 0.00 98 1013.5
20260901114534 57 303 0.0 0.0 0.00 0.00 0.00 98 1013.4
20260901114033 57 298 0.0 0.0 0.00 0.00 0.00 98 1013.4
20260901113532 57 269 0.0 0.0 0.00 0.00 0.00 98 1013.5
20260901113027 57 298 0.0 0.0 0.00 0.00 0.00 98 1013.4
20260901112521 56 280 0.0 3.0 0.00 0.00 0.00 98 1013.6
20260901112016 57 281 0.0 0.0 0.00 0.00 0.00 98 1013.7
20260901111515 56 252 0.0 1.0 0.00 0.00 0.00 98 1013.8
20260901111014 57 262 0.0 0.0 0.00 0.00 0.00 98 1013.8
20260901110510 56 262 0.0 3.0 0.00 0.00 0.00 98 1013.9
20260901110005 56 254 0.0 0.0 0.00 0.00 0.00 98 1014.0
20260901105501 56 248 0.0 3.0 0.00 0.00 0.00 98 1014.0
20260901104956 56 256 3.0 3.0 0.00 0.00 0.00 98 1014.1
20260901104451 56 253 0.0 1.0 0.00 0.00 0.00 98 1014.0
20260901103946 56 253 2.0 3.0 0.00 0.00 0.00 98 1014.0
20260901103441 56 253 0.0 1.0 0.00 0.00 0.00 98 1013.9
20260901102936 56 257 0.0 0.0 0.00 0.00 0.00 98 1013.8
20260901102430 56 249 1.0 3.0 0.00 0.00 0.00 98 1013.8
20260901101920 56 251 0.0 3.0 0.00 0.00 0.00 97 1013.8
20260901101415 56 256 0.0 0.0 0.00 0.00 0.00 97 1013.8
20260901100914 56 256 0.0 0.0 0.00 0.00 0.00 97 1013.8
20260901100408 56 252 0.0 0.0 0.00 0.00 0.00 97 1013.8
20260901095902 56 261 0.0 0.0 0.00 0.00 0.00 97 1013.7
20260901095400 56 259 0.0 0.0 0.00 0.00 0.00 97 1013.7
20260901094854 56 271 0.0 0.0 0.00 0.00 0.00 97 1013.7
20260901094348 56 279 0.0 0.0 0.00 0.00 0.00 97 1013.7
20260901093843 56 266 1.0 3.0 0.00 0.00 0.00 97 1013.7
20260901093342 56 260 0.0 0.0 0.00 0.00 0.00 97 1013.6
20260901092838 56 256 0.0 0.0 0.00 0.00 0.00 97 1013.7
20260901092334 56 256 0.0 0.0 0.00 0.00 0.00 97 1013.7
20260901091830 56 256 0.0 0.0 0.00 0.00 0.00 97 1013.7
20260901091324 56 257 0.0 0.0 0.00 0.00 0.00 97 1013.6
20260901090819 56 257 0.0 0.0 0.00 0.00 0.00 97 1013.6
20260901090314 56 257 0.0 0.0 0.00 0.00 0.00 97 1013.5
20260901085810 56 257 0.0 0.0 0.00 0.00 0.00 97 1013.6
20260901085306 56 257 0.0 0.0 0.00 0.00 0.00 97 1013.6
20260901084801 56 257 0.0 0.0 0.00 0.00 0.00 97 1013.6
20260901084257 56 257 0.0 0.0 0.00 0.00 0.00 97 1013.6
20260901083757 56 257 0.0 0.0 0.00 0.00 0.00 97 1013.5
20260901083257 56 257 0.0 0.0 0.00 0.00 0.00 97 1013.6
20260901082755 56 257 0.0 0.0 0.00 0.00 0.00 97 1013.6
20260901082251 56 257 0.0 0.0 0.00 0.00 0.00 97 1013.6
20260901081746 56 257 0.0 1.0 0.00 0.00 0.00 97 1013.6
20260901081246 56 244 0.0 0.0 0.00 0.00 0.00 97 1013.6
20260901080741 56 245 0.0 0.0 0.00 0.00 0.00 97 1013.5
20260901080240 56 252 0.0 1.0 0.00 0.00 0.00 97 1013.5
20260901075735 56 255 0.0 1.0 0.00 0.00 0.00 97 1013.6
20260901075230 56 254 0.0 0.0 0.00 0.00 0.00 97 1013.4
20260901074729 56 254 0.0 0.0 0.00 0.00 0.00 97 1013.4
20260901074225 56 254 0.0 0.0 0.00 0.00 0.00 97 1013.4
20260901073721 56 254 0.0 0.0 0.00 0.00 0.00 97 1013.5
20260901073216 56 254 0.0 0.0 0.00 0.00 0.00 97 1013.4
20260901072711 56 251 1.0 3.0 0.00 0.00 0.00 97 1013.4
20260901072206 56 259 0.0 1.0 0.00 0.00 0.00 96 1013.3
20260901071701 56 267 0.0 1.0 0.00 0.00 0.00 96 1013.4
20260901071200 56 254 0.0 1.0 0.00 0.00 0.00 96 1013.3
20260901070649 57 252 0.0 0.0 0.00 0.00 0.00 96 1013.2
20260901070144 57 268 0.0 1.0 0.00 0.00 0.00 95 1013.3
20260901065643 57 255 0.0 1.0 0.00 0.00 0.00 95 1013.3
20260901065138 57 265 2.0 5.0 0.00 0.00 0.00 95 1013.5
20260901064635 57 254 0.0 3.0 0.00 0.00 0.00 95 1013.4
20260901064131 57 255 5.0 5.0 0.00 0.00 0.00 95 1013.4
20260901063628 57 251 2.0 4.0 0.00 0.00 0.00 94 1013.3
20260901063123 57 247 1.0 4.0 0.00 0.00 0.00 94 1013.3